Mobridge, SD

2:42 PM CDT on September 24, 2017 (GMT -0500)
Mobridge Municipal

Weather History for KMBG - October, 2012

Change the Weather History Date:

Friday, October 19, 2012

  Actual Average Record
Temperature  
Mean Temperature 45 °F 46 °F  
Max Temperature 52 °F 59 °F 88 °F (1958)
Min Temperature 37 °F 34 °F 13 °F (1960)
Degree Days  
Heating Degree Days 20 19  
Month to date heating degree days 329 293  
Since 1 July heating degree days 481 513  
Cooling Degree Days 0 0  
Month to date cooling degree days 0 0  
Year to date cooling degree days 866 641  
Moisture  
Dew Point 33 °F    
Average Humidity 71    
Maximum Humidity 92    
Minimum Humidity 50    
Precipitation  
Precipitation 0.00 in 0.05 in 0.62 in (1983)
Month to date precipitation 0.31 1.00  
Year to date precipitation 12.72 16.45  
Snow  
Snow 0.00 in - - ()
Month to date snowfall T  
Since 1 July snowfall T  
Snow Depth 0.00 in    
Sea Level Pressure  
Sea Level Pressure 29.82 in    
Wind  
Wind Speed 13 mph (NNW)    
Max Wind Speed 33 mph    
Max Gust Speed 44 mph    
Visibility 10 miles    
Events      
T = Trace of Precipitation, MM = Missing Value Source: NWS Daily Summary

Daily Weather History Graph

Daily Weather History Graph

Search for Another Location

Airport or City:

Trip Planner

Search our weather history database for the weather conditions in past years. The results will help you decide how hot, cold, wet, or windy it might be!

Date:

Astronomy

Oct. 19, 2012 Rise Set
Actual Time 8:04 AM CDT 6:48 PM CDT
Civil Twilight 7:33 AM CDT 7:18 PM CDT
Nautical Twilight 6:59 AM CDT 7:52 PM CDT
Astronomical Twilight 6:25 AM CDT 8:26 PM CDT
Moon 12:59 PM CDT (10/19) 10:18 PM CDT (10/19)
Length of Visible Light 11h 44m
Length of Day
10h 44m
Waxing Crescent, 24% of the Moon is Illuminated
Oct 19
Waxing Crescent
Oct 21
First Quarter
Oct 29
Full
Nov 6
Last Quarter
Nov 13
New

Hourly Weather History & Observations

Time (CDT) Temp. Windchill Dew Point Humidity Pressure Visibility Wind Dir Wind Speed Gust Speed Precip Events Conditions
12:30 AM 42.8 °F 32.5 °F 33.8 °F 70% 29.84 in 10.0 mi NW 28.8 mph 38.0 mph N/A   Overcast
12:52 AM 43.0 °F 33.1 °F 33.1 °F 68% 29.87 in 10.0 mi NNW 26.5 mph 39.1 mph N/A   Overcast
1:52 AM 42.1 °F 31.9 °F 33.1 °F 70% 29.87 in 10.0 mi NW 26.5 mph 35.7 mph N/A   Overcast
2:52 AM 42.1 °F 31.5 °F 33.1 °F 70% 29.86 in 10.0 mi NNW 28.8 mph 38.0 mph N/A   Overcast
3:52 AM 42.1 °F 31.7 °F 33.1 °F 70% 29.86 in 10.0 mi NNW 27.6 mph 40.3 mph N/A   Overcast
4:11 AM 42.8 °F 33.3 °F 33.8 °F 70% 29.85 in 10.0 mi NW 24.2 mph 34.5 mph N/A   Overcast
4:52 AM 42.1 °F 32.1 °F 33.1 °F 70% 29.87 in 10.0 mi NNW 25.3 mph 32.2 mph N/A   Overcast
5:52 AM 42.1 °F 32.6 °F 33.1 °F 70% 29.88 in 10.0 mi NW 23.0 mph 28.8 mph N/A   Overcast
6:52 AM 41.0 °F 32.5 °F 33.1 °F 73% 29.89 in 10.0 mi NNW 17.3 mph 28.8 mph N/A   Overcast
7:52 AM 41.0 °F 33.1 °F 33.1 °F 73% 29.89 in 10.0 mi NNW 15.0 mph 24.2 mph N/A   Overcast
8:52 AM 39.9 °F 31.4 °F 33.1 °F 77% 29.90 in 10.0 mi NNW 16.1 mph 21.9 mph N/A   Overcast
9:52 AM 41.0 °F 32.5 °F 33.1 °F 73% 29.88 in 10.0 mi NNW 17.3 mph 23.0 mph N/A   Overcast
10:52 AM 42.1 °F 34.5 °F 33.1 °F 70% 29.88 in 10.0 mi NNW 15.0 mph 21.9 mph N/A   Overcast
11:52 AM 45.0 °F 38.9 °F 33.1 °F 63% 29.87 in 10.0 mi NNW 12.7 mph - N/A   Mostly Cloudy
12:49 PM 46.4 °F 41.1 °F 33.8 °F 62% 29.82 in 10.0 mi North 11.5 mph - N/A   Partly Cloudy
12:52 PM 46.9 °F - 33.1 °F 59% 29.85 in 10.0 mi NNW 9.2 mph - N/A   Partly Cloudy
1:52 PM 48.0 °F - 33.1 °F 56% 29.82 in 10.0 mi NW 9.2 mph - N/A   Clear
2:52 PM 48.9 °F - 33.1 °F 54% 29.79 in 10.0 mi North 6.9 mph - N/A   Clear
3:52 PM 51.1 °F - 33.1 °F 50% 29.78 in 10.0 mi Calm Calm - N/A   Clear
4:52 PM 50.0 °F - 33.1 °F 52% 29.77 in 10.0 mi Calm Calm - N/A   Clear
5:52 PM 50.0 °F - 33.1 °F 52% 29.76 in 10.0 mi Calm Calm - N/A   Clear
6:52 PM 45.0 °F 41.2 °F 33.1 °F 63% 29.75 in 10.0 mi East 6.9 mph - N/A   Clear
7:52 PM 44.1 °F 39.0 °F 33.1 °F 65% 29.76 in 10.0 mi East 9.2 mph - N/A   Clear
8:52 PM 42.1 °F 36.6 °F 33.1 °F 70% 29.75 in 10.0 mi East 9.2 mph - N/A   Clear
9:52 PM 39.9 °F 34.5 °F 34.0 °F 79% 29.73 in 10.0 mi ESE 8.1 mph - N/A   Clear
10:52 PM 41.0 °F 35.2 °F 35.1 °F 79% 29.71 in 10.0 mi SE 9.2 mph - N/A   Clear
11:52 PM 37.9 °F 32.1 °F 35.1 °F 89% 29.71 in 10.0 mi SE 8.1 mph - N/A   Clear